THEMIS A                
1 30580U 07004A   19265.97871485 -.00000214  00000-0  00000+0 0  9996
2 30580  10.6040  76.6080 8402291 332.0205   1.0443  0.87836728 44343
THEMIS D                
1 30797U 07004D   19265.54305347 -.00000230  00000-0  00000+0 0  9996
2 30797   9.5940  44.9349 8603175   7.7756 359.2584  0.71858236 44105
THEMIS E                
1 30798U 07004E   19265.88198627 -.00000176  00000-0  00000+0 0  9994
2 30798   8.5085  59.1512 8438142 355.0756 359.8708  0.81732209 44391